User: anonymous   Login
Location: Unspecified
(0.0000°N, 0.0000°E)
Time: 06:54:32
(UTC+00:00)
Language:

USA 268 - Orbit

View from above orbital plane
View from above orbital plane
View from above satellite
View from above satellite

Ground track
Ground track

The orbit data is extracted from the following two-line orbital elements,

1 41584U 16036A   18310.55842312 0.00000000  00000-0  00000-0 0    04
2 41584   7.0419 351.5943 0048702  51.2573 309.1994  1.00270000    04
Epoch (UTC): 06 November 2018 13:24:07
Eccentricity: 0.0048702
inclination: 7.0419°
perigee height: 35581 km
apogee height: 35992 km
right ascension of ascending node: 351.5943°
argument of perigee: 51.2573°
revolutions per day: 1.00270000
mean anomaly at epoch: 309.1994°
orbit number at epoch: 0

The dashed part of the orbit path shows where the satellite is in the earth's shadow,  

DLR